Sigfox identifier Datetime Temperature Humidity SNR
002EEC49 2019-04-23 15:04:10 16.5 35 22.5
002EEC49 2019-04-23 14:29:46 16.4 35 22.3
002EEC49 2019-04-23 13:55:23 16.2 35 22.3
002EEC49 2019-04-23 13:20:58 16.2 35 22.2
002EEC49 2019-04-23 12:46:34 16 35 22.1
002EEC49 2019-04-23 12:12:09 15.9 35 22.1
002EEC49 2019-04-23 11:37:45 15.8 35 21.7
002EEC49 2019-04-23 11:03:22 15.8 35 21.3
002EEC49 2019-04-23 10:28:57 15.6 35 21.2
002EEC49 2019-04-23 09:54:33 15.6 34 20.9
002EEC49 2019-04-23 09:20:09 15.6 34 20.6
002EEC49 2019-04-23 08:45:45 15.6 34 20.4
002EEC49 2019-04-23 08:11:21 15.6 34 20.2
002EEC49 2019-04-23 07:36:56 15.6 34 20.2
002EEC49 2019-04-23 07:02:33 15.6 34 20.2
002EEC49 2019-04-23 06:28:09 15.6 34 20.4
002EEC49 2019-04-23 05:53:45 15.6 34 20.5
002EEC49 2019-04-23 05:19:20 15.6 34 20.6
002EEC49 2019-04-23 04:44:56 15.6 34 20.6
002EEC49 2019-04-23 04:10:33 15.6 34 20.8
002EEC49 2019-04-23 03:36:07 15.7 34 20.9
002EEC49 2019-04-23 03:01:43 15.6 34 21.1
002EEC49 2019-04-23 02:27:19 15.6 34 21
002EEC49 2019-04-23 01:52:54 15.6 34 21
002EEC49 2019-04-23 01:18:29 15.6 34 21.1
002EEC49 2019-04-23 00:44:07 15.6 34 21.2
002EEC49 2019-04-23 00:09:41 15.7 34 21.2
002EEC49 2019-04-22 23:35:16 15.7 34 21.2
002EEC49 2019-04-22 23:00:53 15.8 34 21.2
002EEC49 2019-04-22 22:26:30 15.8 34 21.1
002EEC49 2019-04-22 21:52:07 15.8 34 21.1
002EEC49 2019-04-22 21:17:44 15.8 34 21
002EEC49 2019-04-22 20:43:20 15.8 34 21
002EEC49 2019-04-22 20:08:56 15.9 34 21.1
002EEC49 2019-04-22 19:34:33 15.9 34 20.9
002EEC49 2019-04-22 19:00:10 15.9 34 20.8
002EEC49 2019-04-22 18:25:46 16 34 20.6
002EEC49 2019-04-22 17:51:23 15.9 34 20.5
002EEC49 2019-04-22 17:16:59 16 34 20.3
002EEC49 2019-04-22 16:42:37 15.9 34 20.3
002EEC49 2019-04-22 16:08:13 15.8 34 20.2
002EEC49 2019-04-22 15:33:49 15.8 34 20
002EEC49 2019-04-22 14:59:26 15.8 34 19.9
002EEC49 2019-04-22 14:25:02 15.7 34 19.7
002EEC49 2019-04-22 13:50:39 15.8 34 19.5
002EEC49 2019-04-22 13:16:16 15.7 34 19.4
002EEC49 2019-04-22 12:41:51 15.7 34 19.1
002EEC49 2019-04-22 12:07:28 15.7 33 19.3
002EEC49 2019-04-22 11:33:04 15.8 33 19.3
002EEC49 2019-04-22 10:58:40 15.8 33 19.2
002EEC49 2019-04-22 10:24:16 15.8 34 19.1
002EEC49 2019-04-22 09:49:52 15.6 33 19
002EEC49 2019-04-22 09:15:27 15.5 33 19.1
002EEC49 2019-04-22 08:41:02 15.5 33 19.5
002EEC49 2019-04-22 08:06:38 15.5 33 19.5
002EEC49 2019-04-22 07:32:14 15.6 33 19.3
002EEC49 2019-04-22 06:57:50 15.6 33 19.2
002EEC49 2019-04-22 06:23:25 15.6 33 19.2
002EEC49 2019-04-22 05:49:01 15.6 33 19.5
002EEC49 2019-04-22 05:14:37 15.7 33 19.8
002EEC49 2019-04-22 04:40:12 15.6 33 19.6
002EEC49 2019-04-22 04:05:47 15.7 33 19.8
002EEC49 2019-04-22 03:31:23 15.6 33 19.9
002EEC49 2019-04-22 02:56:58 15.6 33 20
002EEC49 2019-04-22 02:22:33 15.6 33 20.3
002EEC49 2019-04-22 01:48:07 15.6 33 20.5
002EEC49 2019-04-22 01:13:43 15.6 33 20.6
002EEC49 2019-04-22 00:39:19 15.6 33 20.9
002EEC49 2019-04-22 00:04:54 15.6 33 21
002EEC49 2019-04-21 23:30:30 15.5 33 21.2
002EEC49 2019-04-21 22:56:05 15.5 33 21.3
002EEC49 2019-04-21 22:21:41 15.6 33 21.3
002EEC49 2019-04-21 21:47:17 15.6 33 21.2
002EEC49 2019-04-21 21:12:54 15.6 33 21.1
002EEC49 2019-04-21 20:38:31 15.5 33 21.1
002EEC49 2019-04-21 20:04:08 15.6 33 21.2
002EEC49 2019-04-21 19:29:44 15.6 33 21.1
002EEC49 2019-04-21 18:55:21 15.6 33 21
002EEC49 2019-04-21 18:20:58 15.5 33 20.8
002EEC49 2019-04-21 17:46:34 15.5 33 20.7
002EEC49 2019-04-21 17:12:10 15.4 33 20.6
002EEC49 2019-04-21 16:37:47 15.5 33 20.6
002EEC49 2019-04-21 16:03:24 15.4 33 20.4
002EEC49 2019-04-21 15:28:59 15.4 33 21.6
002EEC49 2019-04-21 14:54:35 15.3 33 21.4
002EEC49 2019-04-21 14:20:12 15.5 33 21.4
002EEC49 2019-04-21 13:45:49 15.5 33 21.5
002EEC49 2019-04-21 13:11:24 15.4 33 21.4
002EEC49 2019-04-21 12:37:01 15.4 33 21.4
002EEC49 2019-04-21 12:02:37 15.3 33 21.3
002EEC49 2019-04-21 11:28:13 15.3 33 21.2
002EEC49 2019-04-21 10:53:49 15.4 33 21.3
002EEC49 2019-04-21 10:19:26 15.5 32 21.1
002EEC49 2019-04-21 09:45:02 15.5 32 21.2
002EEC49 2019-04-21 09:10:40 15.6 32 21
002EEC49 2019-04-21 08:36:17 15.6 32 21
002EEC49 2019-04-21 08:01:58 15.7 32 21.1
002EEC49 2019-04-21 07:27:32 15.6 32 21.3
002EEC49 2019-04-21 06:53:10 15.7 32 21.5
002EEC49 2019-04-21 06:18:47 15.6 32 21.6
002EEC49 2019-04-21 05:44:26 15.7 33 21.6
002EEC49 2019-04-21 05:10:03 15.6 32 21.5
002EEC49 2019-04-21 04:35:41 15.6 33 21.7
002EEC49 2019-04-21 04:01:18 15.6 32 21.9
002EEC49 2019-04-21 03:26:56 15.6 33 22
002EEC49 2019-04-21 02:52:38 15.6 33 22.4
002EEC49 2019-04-21 02:18:11 15.6 33 21.4
002EEC49 2019-04-21 01:43:49 15.6 33 21.6
002EEC49 2019-04-21 01:09:27 15.6 33 21.7
002EEC49 2019-04-21 00:35:04 15.6 33 21.7
002EEC49 2019-04-21 00:00:42 15.6 33 21.6
002EEC49 2019-04-20 23:26:18 15.6 33 21.6
002EEC49 2019-04-20 22:51:54 15.6 33 21.6
002EEC49 2019-04-20 22:17:32 15.6 33 21.6
002EEC49 2019-04-20 21:43:09 15.6 33 21.6
002EEC49 2019-04-20 21:08:46 15.6 33 21.5
002EEC49 2019-04-20 20:34:23 15.6 33 21.4
002EEC49 2019-04-20 20:00:00 15.6 33 21.4
002EEC49 2019-04-20 19:25:37 15.6 32 21.3
002EEC49 2019-04-20 18:51:14 15.6 32 21.3
002EEC49 2019-04-20 18:16:50 15.7 32 21.2
002EEC49 2019-04-20 17:42:26 15.8 32 21.1
002EEC49 2019-04-20 17:08:02 15.6 32 20.9
002EEC49 2019-04-20 16:33:38 15.6 32 20.8
002EEC49 2019-04-20 15:59:14 15.6 32 20.9
002EEC49 2019-04-20 15:24:50 15.6 32 21
002EEC49 2019-04-20 14:50:26 15.6 32 21
002EEC49 2019-04-20 14:16:02 15.6 32 20.9
002EEC49 2019-04-20 13:41:38 15.6 32 20.8
002EEC49 2019-04-20 13:07:14 15.6 32 20.7
002EEC49 2019-04-20 12:32:50 15.6 32 20.5
002EEC49 2019-04-20 11:58:26 15.6 32 20.1
002EEC49 2019-04-20 11:24:03 15.6 32 19.8
002EEC49 2019-04-20 10:49:40 15.6 32 19.8
002EEC49 2019-04-20 10:15:16 15.6 31 19.6
002EEC49 2019-04-20 09:40:53 15.6 31 19.6
002EEC49 2019-04-20 09:06:29 15.6 31 19.6
002EEC49 2019-04-20 08:32:06 15.6 31 19.7
002EEC49 2019-04-20 07:57:42 15.7 31 19.7
002EEC49 2019-04-20 07:23:18 15.8 31 19.6
002EEC49 2019-04-20 06:48:54 15.8 31 20
002EEC49 2019-04-20 06:14:30 15.8 31 20.1
002EEC49 2019-04-20 05:40:06 15.8 31 20.3
002EEC49 2019-04-20 05:05:41 15.9 31 20.6
002EEC49 2019-04-20 04:31:20 15.6 31 20.7
002EEC49 2019-04-20 03:56:55 15.8 31 21
002EEC49 2019-04-20 03:22:29 15.8 31 21.1
002EEC49 2019-04-20 02:48:06 15.8 31 21.2
002EEC49 2019-04-20 02:13:42 15.8 31 21.3
002EEC49 2019-04-20 01:39:19 16 31 21.3
002EEC49 2019-04-20 01:04:55 16 31 21.4
002EEC49 2019-04-20 00:30:31 16 31 21.4
002EEC49 2019-04-19 23:56:07 16 31 21.4
002EEC49 2019-04-19 23:21:42 16 31 21.6
002EEC49 2019-04-19 22:47:20 16 31 22
002EEC49 2019-04-19 22:12:54 16 31 22.2
002EEC49 2019-04-19 21:38:27 16 31 22.3
002EEC49 2019-04-19 21:04:04 16.1 31 22.6
002EEC49 2019-04-19 20:29:37 16.2 31 22.6
002EEC49 2019-04-19 19:55:12 16.2 31 22.6
002EEC49 2019-04-19 19:20:47 16.2 31 22.6
002EEC49 2019-04-19 18:46:23 16.2 31 22.6
002EEC49 2019-04-19 18:12:00 16.2 31 22.4
002EEC49 2019-04-19 17:37:36 16.2 31 22.4
002EEC49 2019-04-19 17:03:12 16.1 31 22.2
002EEC49 2019-04-19 16:28:49 16 31 22.1
002EEC49 2019-04-19 15:54:25 16 31 22.1
002EEC49 2019-04-19 15:20:02 16 31 21.9
002EEC49 2019-04-19 14:45:37 16 31 21.8
002EEC49 2019-04-19 14:11:14 16 31 21.8
002EEC49 2019-04-19 13:36:51 15.9 31 21.7
002EEC49 2019-04-19 13:02:28 15.8 31 21.7
002EEC49 2019-04-19 12:28:03 15.8 31 21.5
002EEC49 2019-04-19 11:53:39 15.8 31 21.5
002EEC49 2019-04-19 11:19:15 15.8 31 21.5
002EEC49 2019-04-19 10:44:52 15.8 31 21.5
002EEC49 2019-04-19 10:10:27 15.8 30 21.5
002EEC49 2019-04-19 09:36:03 15.8 30 21.5
002EEC49 2019-04-19 09:01:38 15.8 30 21.7
002EEC49 2019-04-19 08:27:13 15.8 30 21.9
002EEC49 2019-04-19 07:52:49 15.8 30 21.7
002EEC49 2019-04-19 07:18:23 15.8 30 21.9
002EEC49 2019-04-19 06:44:00 15.8 30 22.3
002EEC49 2019-04-19 06:09:35 15.9 30 22.1
002EEC49 2019-04-19 05:35:11 16 30 22.1
002EEC49 2019-04-19 05:00:46 16 30 22.4
002EEC49 2019-04-19 04:26:22 15.8 30 22.7
002EEC49 2019-04-19 03:51:57 16 30 23
002EEC49 2019-04-19 03:17:33 16 30 23.1
002EEC49 2019-04-19 02:43:11 16 30 23.2
002EEC49 2019-04-19 02:08:43 16 30 23.1
002EEC49 2019-04-19 01:34:19 16 30 23.3
002EEC49 2019-04-19 00:59:55 16.2 30 23.5
002EEC49 2019-04-19 00:25:31 16.3 30 23.5
002EEC49 2019-04-18 23:51:07 16.4 30 23.5
002EEC49 2019-04-18 23:16:43 16.4 30 23.6
002EEC49 2019-04-18 22:42:19 16.5 30 23.5
002EEC49 2019-04-18 22:07:56 16.7 30 23.5
002EEC49 2019-04-18 21:33:30 16.7 30 23.5
002EEC49 2019-04-18 20:59:07 16.7 30 23.4
002EEC49 2019-04-18 20:24:44 16.7 30 23.3
002EEC49 2019-04-18 19:50:20 16.7 30 23.3
002EEC49 2019-04-18 19:15:56 16.7 30 23.4
002EEC49 2019-04-18 18:41:33 16.7 30 23.1
002EEC49 2019-04-18 18:07:09 16.7 30 22.9
002EEC49 2019-04-18 17:32:47 16.6 29 23
002EEC49 2019-04-18 16:58:25 16.7 29 22.9
002EEC49 2019-04-18 16:24:05 16.6 29 22.7
002EEC49 2019-04-18 15:49:43 16.5 29 22.8
002EEC49 2019-04-18 15:15:20 16.5 29 22.6
002EEC49 2019-04-18 14:40:57 16.5 29 22.4
002EEC49 2019-04-18 14:06:33 16.3 30 22.1
002EEC49 2019-04-18 13:32:10 16.3 30 22
002EEC49 2019-04-18 12:57:46 16.2 30 22.1
002EEC49 2019-04-18 12:23:23 16.1 30 22.3
002EEC49 2019-04-18 11:49:01 16.3 30 22.2
002EEC49 2019-04-18 11:14:39 16.3 30 22.2
002EEC49 2019-04-18 10:40:16 16.3 30 22.3
002EEC49 2019-04-18 10:05:53 16.3 30 22.5
002EEC49 2019-04-18 09:31:30 16 30 22.6
002EEC49 2019-04-18 08:57:08 16 29 22.7
002EEC49 2019-04-18 08:22:46 16.2 29 23
002EEC49 2019-04-18 07:48:24 16.5 29 23
002EEC49 2019-04-18 07:14:01 16.4 29 23.3
002EEC49 2019-04-18 06:39:38 16.3 29 23.4
002EEC49 2019-04-18 06:05:17 16.2 29 23.6
002EEC49 2019-04-18 05:30:54 16.3 29 23.7
002EEC49 2019-04-18 04:56:32 16.2 29 23.8
002EEC49 2019-04-18 04:22:10 16.3 29 23.6
002EEC49 2019-04-18 03:47:47 16.3 29 23.5
002EEC49 2019-04-18 03:13:25 16.2 29 23.6
002EEC49 2019-04-18 02:39:03 16.2 29 23.7
002EEC49 2019-04-18 02:04:44 16.3 29 23.7
002EEC49 2019-04-18 01:30:17 16.3 29 23.8
002EEC49 2019-04-18 00:55:54 16.5 29 23.8
002EEC49 2019-04-18 00:21:32 16.5 29 23.8
002EEC49 2019-04-17 23:47:10 16.7 29 23.8
002EEC49 2019-04-17 23:12:48 16.7 29 23.8
002EEC49 2019-04-17 22:38:25 16.7 29 23.7
002EEC49 2019-04-17 22:04:03 16.7 29 23.6
002EEC49 2019-04-17 21:29:40 16.7 29 23.7
002EEC49 2019-04-17 20:55:19 16.6 29 23.7
002EEC49 2019-04-17 20:20:55 16.6 29 23.7
002EEC49 2019-04-17 19:46:32 16.6 29 23.6
002EEC49 2019-04-17 19:12:09 16.6 29 23.5
002EEC49 2019-04-17 18:37:46 16.5 29 23.6
002EEC49 2019-04-17 18:03:23 16.5 28 23.6
002EEC49 2019-04-17 17:29:00 16.5 28 23.6
002EEC49 2019-04-17 16:54:38 16.5 28 23.5
002EEC49 2019-04-17 16:20:14 16.5 28 23.5
002EEC49 2019-04-17 15:45:52 16.5 28 23.6
002EEC49 2019-04-17 15:11:29 16.4 27 23.5
002EEC49 2019-04-17 14:37:06 16.5 27 23.5
002EEC49 2019-04-17 14:02:43 16.6 27 23.7
002EEC49 2019-04-17 13:28:22 16.7 27 23.9
002EEC49 2019-04-17 12:53:58 16.8 27 23.7
002EEC49 2019-04-17 12:19:35 16.7 27 23.6
002EEC49 2019-04-17 11:45:13 16.7 27 23.5
002EEC49 2019-04-17 11:10:51 16.7 27 23.3
002EEC49 2019-04-17 10:36:28 16.6 27 23.3
002EEC49 2019-04-17 10:02:05 16.6 27 23.2
002EEC49 2019-04-17 09:27:43 16.5 27 23.1
002EEC49 2019-04-17 08:53:21 16.7 26 22.9
002EEC49 2019-04-17 08:18:57 16.8 26 23
002EEC49 2019-04-17 07:44:34 17.1 26 22.9
002EEC49 2019-04-17 07:10:11 17.3 26 22.8
002EEC49 2019-04-17 06:35:48 17.5 26 22.8
002EEC49 2019-04-17 06:01:25 17.8 26 22.8
002EEC49 2019-04-17 05:27:02 17.8 26 22.9
002EEC49 2019-04-17 04:52:39 17.8 26 22.8
002EEC49 2019-04-17 04:18:16 17.9 26 22.6
002EEC49 2019-04-17 03:43:53 18 26 22.4
002EEC49 2019-04-17 03:09:30 18 26 22.2
002EEC49 2019-04-17 02:35:09 18.1 26 22.3
002EEC49 2019-04-17 02:00:46 18.2 26 22
002EEC49 2019-04-17 01:26:24 18.2 26 21.9
002EEC49 2019-04-17 00:52:00 18 26 21.8
002EEC49 2019-04-17 00:17:37 18 26 21.5
002EEC49 2019-04-16 23:43:15 17.8 26 21.2
002EEC49 2019-04-16 23:08:51 17.5 25 22.1
002EEC49 2019-04-16 22:34:29 17.7 24 22
002EEC49 2019-04-16 22:00:07 18.2 25 22.3
002EEC49 2019-04-16 21:25:44 18.4 25 22.4
002EEC49 2019-04-16 20:51:22 18.8 25 22.4
002EEC49 2019-04-16 20:16:59 18.8 25 22.8
002EEC49 2019-04-16 19:42:36 19 25 22.9
002EEC49 2019-04-16 19:08:15 19 25 23.1
002EEC49 2019-04-16 18:33:52 19 25 23.2
002EEC49 2019-04-16 17:59:30 19 24 23.4
002EEC49 2019-04-16 17:25:08 19.2 24 23.5
002EEC49 2019-04-16 16:50:47 19.2 24 23.5
002EEC49 2019-04-16 16:16:25 19.5 24 23.4
002EEC49 2019-04-16 15:07:42 19.8 24 23.6
002EEC49 2019-04-16 14:33:20 20.3 23 23.5
002EEC49 2019-04-16 13:58:59 21.3 25 23.6
002EEC49 2019-04-16 13:24:38 21.4 25 23.8
002EEC49 2019-04-16 12:50:17 21.2 26 24.1
002EEC49 2019-04-16 12:15:56 21.2 27 24.3
002EEC49 2019-04-16 11:41:34 20.9 28 24.3
002EEC49 2019-04-16 11:07:14 20.7 30 24.5
002EEC49 2019-04-16 10:32:50 20.7 29 24.5
002EEC49 2019-04-16 09:58:27 20.7 29 24.7
002EEC49 2019-04-16 09:24:06 20.7 29 24.8
002EEC49 2019-04-16 08:49:45 20.7 29 25
002EEC49 2019-04-16 08:15:23 20.7 29 24.5
002EEC49 2019-04-16 07:41:01 20.7 29 24.7
002EEC49 2019-04-16 07:06:40 20.7 29 24.7
002EEC49 2019-04-16 06:32:18 20.7 29 24.7
002EEC49 2019-04-16 05:57:57 20.7 29 24.7
002EEC49 2019-04-16 05:23:36 20.7 29 24.7
002EEC49 2019-04-16 04:49:15 20.7 29 24.7
002EEC49 2019-04-16 04:14:54 20.7 29 24.7
002EEC49 2019-04-16 03:40:34 20.7 29 24.7
002EEC49 2019-04-16 03:06:13 20.8 29 24.8
002EEC49 2019-04-16 02:31:52 20.7 29 24.6
002EEC49 2019-04-16 01:57:31 20.7 29 24.6
002EEC49 2019-04-16 01:23:10 20.7 29 25
002EEC49 2019-04-16 00:48:48 20.9 29 25
002EEC49 2019-04-16 00:14:26 20.8 28 24.9
002EEC49 2019-04-15 23:40:05 20.8 28 25.1
002EEC49 2019-04-15 23:05:43 20.9 28 25.2
002EEC49 2019-04-15 22:31:22 20.9 28 25
002EEC49 2019-04-15 21:57:04 20.9 28 25.2
002EEC49 2019-04-15 21:22:42 20.9 28 25.3
002EEC49 2019-04-15 20:48:20 20.9 28 25.4
002EEC49 2019-04-15 20:14:00 20.9 28 25.5
002EEC49 2019-04-15 19:39:39 20.9 27 25.4
002EEC49 2019-04-15 19:05:17 20.9 27 25.5
002EEC49 2019-04-15 18:30:55 21.1 27 25.4
002EEC49 2019-04-15 17:56:35 21.1 27 25.5
002EEC49 2019-04-15 17:22:16 21.2 26 25.9
002EEC49 2019-04-15 16:47:56 21.2 26 25.9
002EEC49 2019-04-15 16:13:35 21.4 26 26
002EEC49 2019-04-15 15:39:15 21.3 25 26
002EEC49 2019-04-15 15:04:55 21.5 24 26
002EEC49 2019-04-15 14:30:36 21.6 24 26.1
002EEC49 2019-04-15 13:56:16 21.8 23 26.1
002EEC49 2019-04-15 13:21:58 21.9 22 26.1
002EEC49 2019-04-15 12:47:38 22.1 20 26.1
002EEC49 2019-04-15 12:13:22 22.5 18 26.3
002EEC49 2019-04-15 11:38:59 22.7 17 26.5
002EEC49 2019-04-15 11:04:40 22.6 17 26.3
002EEC49 2019-04-15 10:30:20 22.4 18 26.3
002EEC49 2019-04-15 09:56:01 22.5 18 26.6
002EEC49 2019-04-15 09:21:41 22.4 18 26.6
002EEC49 2019-04-15 08:47:22 22.5 18 26.5
002EEC49 2019-04-15 08:13:03 22.2 18 26.5
002EEC49 2019-04-15 07:38:43 22.2 18 26.4
002EEC49 2019-04-15 07:04:22 22.2 18 26.3
002EEC49 2019-04-15 06:30:02 22.2 18 26.2
002EEC49 2019-04-15 05:55:42 22.2 18 26.2
002EEC49 2019-04-15 05:21:21 22.1 18 26.2
002EEC49 2019-04-15 04:46:59 22.2 18 26.1
002EEC49 2019-04-15 04:12:39 22.2 18 26.1
002EEC49 2019-04-15 03:38:18 22.2 18 26.1
002EEC49 2019-04-15 03:03:58 22.2 19 25.9
002EEC49 2019-04-15 02:29:38 22.2 19 25.8
002EEC49 2019-04-15 01:55:18 22.2 19 25.8
002EEC49 2019-04-15 01:20:58 22.1 19 26
002EEC49 2019-04-15 00:46:38 22.2 19 26
002EEC49 2019-04-15 00:12:17 22.2 19 26.1
002EEC49 2019-04-14 23:37:56 22.2 19 26.2
002EEC49 2019-04-14 23:03:35 22.2 19 26.2
002EEC49 2019-04-14 22:29:16 22.2 19 26.3
002EEC49 2019-04-14 21:54:55 22.2 19 26.2
002EEC49 2019-04-14 21:20:34 22.2 19 26
002EEC49 2019-04-14 20:46:13 22.2 19 26.1
002EEC49 2019-04-14 20:11:53 22.2 19 26.1
002EEC49 2019-04-14 19:37:33 22.2 19 25.8
002EEC49 2019-04-14 19:03:12 22.2 19 26
002EEC49 2019-04-14 18:28:52 22.2 19 25.9
002EEC49 2019-04-14 17:54:32 22.2 19 25.9
002EEC49 2019-04-14 17:20:12 22.2 19 26.1
002EEC49 2019-04-14 16:45:52 22.2 19 26.1
002EEC49 2019-04-14 16:11:33 22.2 19 26.1
002EEC49 2019-04-14 15:37:13 22.2 19 26
002EEC49 2019-04-14 15:02:53 22.2 19 26
002EEC49 2019-04-14 14:28:34 22.2 19 26.2
002EEC49 2019-04-14 13:54:13 22.2 19 26.3
002EEC49 2019-04-14 13:19:53 22.2 19 26.3
002EEC49 2019-04-14 12:45:33 22.2 20 26.2
002EEC49 2019-04-14 12:11:12 22.2 20 26.3
002EEC49 2019-04-14 11:36:51 22.2 20 26.4
002EEC49 2019-04-14 11:02:32 22.2 20 26.4
002EEC49 2019-04-14 10:28:12 22.2 20 26.4
002EEC49 2019-04-14 09:53:52 22.2 19 26.4
002EEC49 2019-04-14 09:19:32 22.2 19 26.4
002EEC49 2019-04-14 08:45:11 22.2 19 26.6
002EEC49 2019-04-14 08:10:51 22.2 19 26.7
002EEC49 2019-04-14 07:36:32 22.2 19 26.7
002EEC49 2019-04-14 07:02:13 22.2 19 26.7
002EEC49 2019-04-14 06:27:54 22.2 19 26.7
002EEC49 2019-04-14 05:53:35 22.2 19 26.7
002EEC49 2019-04-14 05:19:16 22.2 19 26.8
002EEC49 2019-04-14 04:44:57 22.2 19 26.6
002EEC49 2019-04-14 04:10:37 22.2 19 26.6
002EEC49 2019-04-14 03:36:18 22.2 19 26.7
002EEC49 2019-04-14 03:01:57 22.2 19 26.5
002EEC49 2019-04-14 02:27:36 22.2 19 26.5
002EEC49 2019-04-14 01:53:16 22.2 19 26.6
002EEC49 2019-04-14 01:18:56 22.2 19 26.6
002EEC49 2019-04-14 00:44:36 22.4 19 26.6
002EEC49 2019-04-14 00:10:16 22.3 19 26.6
002EEC49 2019-04-13 23:35:54 22.4 19 26.7
002EEC49 2019-04-13 23:01:33 22.4 19 26.7
002EEC49 2019-04-13 22:27:13 22.5 19 26.6
002EEC49 2019-04-13 21:52:52 22.5 19 26.5
002EEC49 2019-04-13 21:18:33 22.4 19 26.5
002EEC49 2019-04-13 20:44:14 22.5 19 26.4
002EEC49 2019-04-13 20:09:55 22.5 19 26.4
002EEC49 2019-04-13 19:35:35 22.5 19 26.4
002EEC49 2019-04-13 19:01:13 22.5 19 26.3
002EEC49 2019-04-13 18:26:52 22.5 19 26.2
002EEC49 2019-04-13 17:52:32 22.5 19 26
002EEC49 2019-04-13 17:18:12 22.6 19 25.9
002EEC49 2019-04-13 16:43:52 22.6 19 25.9
002EEC49 2019-04-13 16:09:33 22.7 19 25.9
002EEC49 2019-04-13 15:35:13 22.7 19 25.8
002EEC49 2019-04-13 15:00:54 22.6 19 25.7
002EEC49 2019-04-13 14:26:34 22.7 19 25.8
002EEC49 2019-04-13 13:52:15 22.7 19 25.8
002EEC49 2019-04-13 13:17:56 22.7 19 25.8
002EEC49 2019-04-13 12:43:36 22.7 19 25.9
002EEC49 2019-04-13 12:09:17 22.7 19 26
002EEC49 2019-04-13 11:34:58 22.7 19 25.8
002EEC49 2019-04-13 11:00:39 22.7 19 25.8
002EEC49 2019-04-13 10:26:21 22.7 19 25.8
002EEC49 2019-04-13 09:52:02 22.7 19 25.7
002EEC49 2019-04-13 09:17:44 22.6 19 25.5
002EEC49 2019-04-13 08:43:24 22.7 19 25.6
002EEC49 2019-04-13 08:09:04 22.7 19 25.7
002EEC49 2019-04-13 07:34:44 22.7 19 25.8
002EEC49 2019-04-13 07:00:22 22.6 19 25.8
002EEC49 2019-04-13 06:26:02 22.6 19 25.7
002EEC49 2019-04-13 05:51:41 22.6 19 25.6
002EEC49 2019-04-13 05:17:21 22.6 19 25.9
002EEC49 2019-04-13 04:43:01 22.7 19 26.1
002EEC49 2019-04-13 04:08:40 22.6 19 26.3
002EEC49 2019-04-13 03:34:19 22.7 19 26.4
002EEC49 2019-04-13 03:00:00 22.8 19 26.3
002EEC49 2019-04-13 02:25:39 22.8 20 26.4
002EEC49 2019-04-13 01:51:20 22.8 20 26.4
002EEC49 2019-04-13 01:16:59 22.8 20 26.4
002EEC49 2019-04-13 00:42:40 22.8 20 26.5
002EEC49 2019-04-13 00:08:21 22.8 20 26.5
002EEC49 2019-04-12 23:34:01 22.9 20 26.6
002EEC49 2019-04-12 22:59:41 23 20 26.6
002EEC49 2019-04-12 22:25:21 23 21 26.6
002EEC49 2019-04-12 21:51:00 23.1 21 26.7
002EEC49 2019-04-12 21:16:41 23 21 26.8
002EEC49 2019-04-12 20:42:21 23.1 20 26.9
002EEC49 2019-04-12 20:08:03 23 20 27
002EEC49 2019-04-12 19:33:42 23.2 20 27.1
002EEC49 2019-04-12 18:59:22 23.2 20 27.3
002EEC49 2019-04-12 18:25:02 23.3 19 27.3
002EEC49 2019-04-12 17:50:41 23.3 20 27.5
002EEC49 2019-04-12 17:16:21 23.3 20 27.5
002EEC49 2019-04-12 16:41:59 23.2 20 27.7
002EEC49 2019-04-12 16:07:38 23.2 20 28.1
002EEC49 2019-04-12 15:33:17 23 20 28.6
002EEC49 2019-04-12 14:58:56 22.8 21 28.2
002EEC49 2019-04-12 14:24:35 22.5 22 27.3
002EEC49 2019-04-12 13:50:14 22.2 23 24.9
002EEC49 2019-04-12 13:15:53 21.4 25 21.2